| time (UTC) | temp C | wind direction | speed KPH | gust KPH | rain 1hr cm | rain 24hr cm | rain mn cm | humidity % | barometer mb |
| 20260505181201 | 7 | 7 | 1.6 | 8.0 | 0.00 | 0.00 | 0.00 | 48 | 1015.5 |
| 20260505180000 | 7 | 1 | 1.6 | 14.5 | 0.00 | 0.00 | 0.00 | 47 | 1015.7 |
| 20260505173601 | 7 | 26 | 4.8 | 19.3 | 0.00 | 0.00 | 0.00 | 49 | 1015.8 |
| 20260505171200 | 8 | 355 | 4.8 | 19.3 | 0.00 | 0.00 | 0.00 | 49 | 1015.8 |
| 20260505170001 | 7 | 354 | 4.8 | 19.3 | 0.00 | 0.00 | 0.00 | 49 | 1015.8 |
| 20260505164800 | 7 | 24 | 6.4 | 19.3 | 0.00 | 0.00 | 0.00 | 47 | 1015.9 |
| 20260505163600 | 7 | 1 | 6.4 | 19.3 | 0.00 | 0.00 | 0.00 | 48 | 1015.7 |
| 20260505162401 | 7 | 20 | 6.4 | 27.4 | 0.00 | 0.00 | 0.00 | 50 | 1015.8 |
| 20260505161200 | 7 | 14 | 6.4 | 25.7 | 0.00 | 0.00 | 0.00 | 47 | 1015.7 |
| 20260505152400 | 6 | 18 | 6.4 | 25.7 | 0.00 | 0.00 | 0.00 | 49 | 1016.2 |
| 20260505124801 | 1 | 0 | 0.0 | 0.0 | 0.00 | 0.00 | 0.00 | 80 | 1015.7 |
| 20260505122401 | 1 | 0 | 0.0 | 0.0 | 0.00 | 0.00 | 0.00 | 78 | 1015.6 |
| 20260505121200 | 1 | 287 | 3.2 | 9.7 | 0.00 | 0.00 | 0.00 | 78 | 1015.6 |
| 20260505120000 | 1 | 294 | 1.6 | 9.7 | 0.00 | 0.00 | 0.00 | 79 | 1015.7 |
| 20260505114801 | 1 | 301 | 3.2 | 12.9 | 0.00 | 0.00 | 0.00 | 80 | 1015.5 |
| 20260505113601 | 0 | 288 | 0.0 | 3.2 | 0.00 | 0.00 | 0.00 | 83 | 1015.6 |
| 20260505112400 | 0 | 0 | 0.0 | 0.0 | 0.00 | 0.00 | 0.00 | 82 | 1015.6 |
| 20260505111201 | 0 | 0 | 0.0 | 0.0 | 0.00 | 0.00 | 0.00 | 81 | 1015.5 |
| 20260505101201 | 2 | 345 | 0.0 | 4.8 | 0.00 | 0.00 | 0.00 | 74 | 1015.6 |
| 20260505100001 | 2 | 3 | 1.6 | 11.3 | 0.00 | 0.00 | 0.00 | 73 | 1015.4 |
| 20260505094800 | 2 | 6 | 1.6 | 12.9 | 0.00 | 0.00 | 0.00 | 72 | 1015.4 |
| 20260505093601 | 2 | 13 | 1.6 | 9.7 | 0.00 | 0.00 | 0.00 | 70 | 1015.2 |
| 20260505092400 | 2 | 22 | 3.2 | 9.7 | 0.00 | 0.00 | 0.00 | 70 | 1015.1 |
| 20260505091201 | 3 | 28 | 3.2 | 8.0 | 0.00 | 0.00 | 0.00 | 69 | 1014.9 |
| 20260505084801 | 4 | 43 | 3.2 | 12.9 | 0.00 | 0.00 | 0.00 | 67 | 1014.7 |
| 20260505081201 | 6 | 0 | 0.0 | 0.0 | 0.00 | 0.00 | 0.00 | 57 | 1014.3 |
| 20260505080001 | 7 | 302 | 1.6 | 9.7 | 0.00 | 0.00 | 0.00 | 55 | 1014.3 |
| 20260505073601 | 7 | 309 | 3.2 | 12.9 | 0.00 | 0.00 | 0.00 | 54 | 1014.3 |
| 20260505071200 | 7 | 283 | 3.2 | 11.3 | 0.00 | 0.00 | 0.00 | 56 | 1014.4 |
| 20260505063601 | 7 | 0 | 0.0 | 0.0 | 0.00 | 0.00 | 0.00 | 61 | 1014.4 |
| 20260505062400 | 7 | 0 | 0.0 | 0.0 | 0.00 | 0.00 | 0.00 | 66 | 1014.4 |
| 20260505061201 | 7 | 0 | 0.0 | 0.0 | 0.00 | 0.00 | 0.00 | 63 | 1014.5 |
| 20260505060002 | 7 | 3 | 3.2 | 11.3 | 0.00 | 0.00 | 0.00 | 63 | 1014.6 |
| 20260505054801 | 7 | 32 | 1.6 | 12.9 | 0.00 | 0.00 | 0.00 | 63 | 1014.5 |
| 20260505053601 | 8 | 355 | 0.0 | 6.4 | 0.00 | 0.00 | 0.00 | 61 | 1014.4 |
| 20260505052401 | 8 | 315 | 3.2 | 11.3 | 0.00 | 0.00 | 0.00 | 60 | 1014.2 |
| 20260505051201 | 8 | 325 | 3.2 | 16.1 | 0.00 | 0.00 | 0.00 | 61 | 1013.9 |
| 20260505041201 | 8 | 0 | 0.0 | 0.0 | 0.00 | 0.00 | 0.00 | 63 | 1013.2 |
| 20260505040001 | 8 | 342 | 0.0 | 6.4 | 0.00 | 0.00 | 0.00 | 62 | 1013.1 |
| 20260505034801 | 8 | 0 | 0.0 | 0.0 | 0.00 | 0.00 | 0.00 | 62 | 1012.9 |
| 20260505033601 | 8 | 341 | 0.0 | 6.4 | 0.00 | 0.00 | 0.00 | 61 | 1012.7 |
| 20260505032401 | 8 | 328 | 0.0 | 3.2 | 0.00 | 0.00 | 0.00 | 60 | 1012.6 |
| 20260505031201 | 8 | 328 | 0.0 | 4.8 | 0.00 | 0.00 | 0.00 | 59 | 1012.5 |
| 20260505030002 | 8 | 0 | 0.0 | 0.0 | 0.00 | 0.00 | 0.00 | 58 | 1012.6 |
| 20260505024801 | 8 | 0 | 0.0 | 0.0 | 0.00 | 0.00 | 0.00 | 57 | 1012.5 |
| 20260505023601 | 8 | 0 | 0.0 | 0.0 | 0.00 | 0.00 | 0.00 | 57 | 1012.2 |
| 20260505020002 | 10 | 0 | 0.0 | 0.0 | 0.00 | 0.00 | 0.00 | 54 | 1012.1 |
| 20260505014801 | 10 | 16 | 0.0 | 6.4 | 0.00 | 0.00 | 0.00 | 52 | 1012.1 |
| 20260505013601 | 10 | 2 | 1.6 | 9.7 | 0.00 | 0.00 | 0.00 | 51 | 1012.0 |
| 20260505012401 | 10 | 1 | 0.0 | 4.8 | 0.00 | 0.00 | 0.00 | 51 | 1012.0 |
| 20260505011201 | 10 | 339 | 1.6 | 16.1 | 0.00 | 0.00 | 0.00 | 50 | 1012.0 |
| 20260505004801 | 11 | 340 | 1.6 | 17.7 | 0.00 | 0.00 | 0.00 | 50 | 1012.1 |
| 20260505002401 | 11 | 317 | 3.2 | 11.3 | 0.00 | 0.00 | 0.00 | 49 | 1012.1 |
| 20260505000001 | 11 | 305 | 3.2 | 12.9 | 0.00 | 0.00 | 0.00 | 50 | 1012.2 |
| 20260504234801 | 11 | 307 | 3.2 | 17.7 | 0.00 | 0.00 | 0.00 | 52 | 1012.2 |
| 20260504233602 | 11 | 314 | 3.2 | 16.1 | 0.00 | 0.00 | 0.00 | 51 | 1012.0 |
| 20260504232402 | 11 | 323 | 3.2 | 12.9 | 0.00 | 0.00 | 0.00 | 49 | 1012.0 |
| 20260504231201 | 11 | 320 | 3.2 | 14.5 | 0.00 | 0.00 | 0.00 | 51 | 1011.9 |
| 20260504230001 | 11 | 312 | 3.2 | 14.5 | 0.00 | 0.00 | 0.00 | 51 | 1012.1 |
| 20260504224801 | 11 | 320 | 6.4 | 22.5 | 0.00 | 0.00 | 0.00 | 49 | 1012.0 |
| 20260504222401 | 12 | 324 | 6.4 | 22.5 | 0.00 | 0.00 | 0.00 | 50 | 1012.1 |
| 20260504221201 | 12 | 328 | 4.8 | 24.1 | 0.00 | 0.00 | 0.00 | 50 | 1012.1 |
| 20260504220001 | 12 | 342 | 4.8 | 14.5 | 0.00 | 0.00 | 0.00 | 51 | 1012.2 |
| 20260504214802 | 12 | 340 | 6.4 | 20.9 | 0.00 | 0.00 | 0.00 | 50 | 1012.1 |
| 20260504213601 | 12 | 343 | 6.4 | 17.7 | 0.00 | 0.00 | 0.00 | 48 | 1012.1 |
| 20260504212401 | 12 | 346 | 4.8 | 16.1 | 0.00 | 0.00 | 0.00 | 48 | 1012.2 |
| 20260504210002 | 11 | 300 | 4.8 | 14.5 | 0.00 | 0.00 | 0.00 | 54 | 1012.8 |
| 20260504202402 | 11 | 312 | 3.2 | 16.1 | 0.00 | 0.00 | 0.00 | 52 | 1013.0 |
| 20260504201201 | 11 | 343 | 4.8 | 20.9 | 0.00 | 0.00 | 0.00 | 52 | 1012.9 |
| 20260504200002 | 11 | 324 | 6.4 | 19.3 | 0.00 | 0.00 | 0.00 | 52 | 1013.0 |
| 20260504194802 | 11 | 331 | 4.8 | 22.5 | 0.00 | 0.00 | 0.00 | 52 | 1013.1 |
| 20260504193601 | 10 | 359 | 4.8 | 17.7 | 0.00 | 0.00 | 0.00 | 51 | 1013.1 |
| 20260504192402 | 11 | 345 | 4.8 | 19.3 | 0.00 | 0.00 | 0.00 | 51 | 1013.1 |
| 20260504191201 | 11 | 326 | 6.4 | 19.3 | 0.00 | 0.00 | 0.00 | 54 | 1013.0 |
| 20260504190002 | 11 | 347 | 3.2 | 19.3 | 0.00 | 0.00 | 0.00 | 54 | 1013.1 |
| 20260504183601 | 11 | 327 | 4.8 | 20.9 | 0.00 | 0.00 | 0.00 | 54 | 1013.2 |
| 20260504182401 | 11 | 322 | 6.4 | 19.3 | 0.00 | 0.00 | 0.00 | 55 | 1013.2 |